Visibility
15.0 15.0 15.0 15.0 15.0 15.0 15.0 15.0 15.0 15.0 15.0 15.0 15.0 15.0 15.0 15.0 15.0 15.0 15.0 15.0 15.0 15.0 15.0 15.0 15.0 15.0 15.0 15.0 15.0 15.0 15.0 15.0 15.0 15.0 15.0 15.0 15.0 15.0 15.0 15.0 15.0 15.0 15.0 15.0 15.0
15.0 15.0 15.0 15.0 15.0 15.0 15.0 15.0 15.0 15.0 15.0 15.0 15.0 15.0 15.0 15.0 15.0 15.0 15.0 15.0 15.0 15.0 15.0 15.0 15.0 15.0 15.0 15.0 15.0 15.0 15.0 15.0 15.0 15.0 15.0 15.0 15.0 15.0 15.0 15.0 15.0 15.0 15.0 15.0 15.0
15.0 15.0 15.0 15.0 15.0 15.0 15.0 15.0 15.0 15.0 15.0 15.0 15.0 15.0 15.0 15.0 15.0 15.0 15.0 15.0 15.0 15.0 15.0 15.0 15.0 15.0 15.0 15.0 15.0 15.0 15.0 15.0 15.0 15.0 15.0 15.0 15.0 15.0 15.0 15.0 15.0 15.0 15.0 15.0 15.0
15.0 15.0 15.0 15.0 15.0 15.0 15.0 15.0 15.0 15.0 15.0 15.0 15.0 15.0 15.0 15.0 0.2 15.0 15.0 15.0 15.0 15.0 15.0 15.0 15.0 15.0 15.0 15.0 15.0 15.0 15.0 15.0 15.0 15.0 15.0 15.0 15.0 15.0 15.0 15.0 15.0 15.0 15.0 15.0 15.0
15.0 15.0 15.0 15.0 15.0 15.0 15.0 15.0 15.0 15.0 15.0 15.0 15.0 15.0 15.0 15.0 15.0 15.0 15.0 15.0 15.0 15.0 15.0 15.0 15.0 15.0 15.0 15.0 15.0 15.0 15.0 15.0 15.0 15.0 15.0 15.0 15.0 15.0 15.0 15.0 15.0 15.0 15.0 15.0 15.0
15.0 15.0 15.0 15.0 15.0 15.0 15.0 15.0 15.0 15.0 15.0 15.0 15.0 15.0 15.0 15.0 15.0 15.0 15.0 15.0 15.0 15.0 15.0 15.0 15.0 15.0 15.0 15.0 15.0 15.0 15.0 15.0 15.0 15.0 15.0 15.0 15.0 15.0 15.0 15.0 15.0 15.0 15.0 15.0 15.0
15.0 15.0 15.0 15.0 15.0 15.0 15.0 15.0 15.0 15.0 15.0 15.0 15.0 15.0 15.0 15.0 15.0 15.0 15.0 15.0 15.0 15.0 15.0 15.0 15.0 15.0 15.0 15.0 15.0 15.0 15.0 15.0 15.0 15.0 15.0 15.0 15.0 15.0 15.0 15.0 15.0 15.0 15.0 15.0 15.0
15.0 15.0 15.0 15.0 15.0 15.0 15.0 15.0 15.0 15.0 15.0 15.0 15.0 14.9 0.2 15.0 15.0 15.0 15.0 15.0 15.0 15.0 15.0 15.0 15.0 15.0 15.0 15.0 15.0 15.0 15.0 15.0 15.0 15.0 15.0 15.0 15.0 15.0 15.0 15.0 15.0 15.0 15.0 15.0 15.0
15.0 15.0 15.0 15.0 15.0 15.0 15.0 15.0 15.0 15.0 15.0 15.0 15.0 15.0 13.2 15.0 15.0 15.0 15.0 15.0 15.0 15.0 15.0 15.0 15.0 15.0 15.0 15.0 15.0 15.0 15.0 15.0 15.0 15.0 15.0 15.0 15.0 15.0 15.0 15.0 15.0 15.0 15.0 15.0 15.0
15.0 15.0 15.0 15.0 15.0 15.0 15.0 15.0 15.0 15.0 15.0 15.0 15.0 0.1 15.0 15.0 15.0 15.0 4.9 10.7 15.0 15.0 15.0 15.0 15.0 15.0 15.0 15.0 15.0 15.0 15.0 15.0 15.0 15.0 15.0 15.0 15.0 15.0 15.0 15.0 15.0 15.0 15.0 15.0 15.0
15.0 15.0 15.0 15.0 15.0 15.0 15.0 15.0 15.0 15.0 5.9 15.0 15.0 9.9 15.0 15.0 15.0 15.0 15.0 2.5 8.2 15.0 0.1 15.0 15.0 15.0 15.0 15.0 15.0 15.0 15.0 15.0 15.0 15.0 15.0 15.0 15.0 15.0 15.0 15.0 15.0 15.0 15.0 15.0 15.0
15.0 15.0 15.0 15.0 15.0 15.0 15.0 15.0 15.0 8.6 0.2 15.0 15.0 15.0 15.0 15.0 15.0 15.0 15.0 0.7 3.5 1.6 4.1 11.9 15.0 15.0 15.0 15.0 15.0 15.0 15.0 15.0 15.0 15.0 15.0 15.0 15.0 15.0 15.0 15.0 15.0 15.0 15.0 15.0 15.0
15.0 15.0 15.0 15.0 15.0 15.0 15.0 14.2 15.0 15.0 2.8 15.0 15.0 15.0 15.0 15.0 15.0 15.0 15.0 13.5 0.5 0.1 3.4 4.4 14.1 15.0 15.0 15.0 15.0 15.0 15.0 15.0 15.0 15.0 15.0 15.0 15.0 15.0 15.0 15.0 15.0 15.0 15.0 15.0 15.0
15.0 15.0 15.0 15.0 15.0 15.0 15.0 15.0 15.0 6.2 0.9 15.0 15.0 15.0 15.0 15.0 15.0 15.0 15.0 14.1 0.9 0.1 5.2 3.2 8.4 15.0 15.0 15.0 15.0 15.0 15.0 15.0 15.0 15.0 15.0 15.0 15.0 15.0 15.0 15.0 15.0 15.0 15.0 15.0 15.0
15.0 15.0 15.0 15.0 15.0 15.0 15.0 15.0 12.6 10.3 0.2 15.0 15.0 15.0 15.0 15.0 15.0 14.9 15.0 14.9 0.1 0.3 0.2 0.8 4.8 14.7 15.0 15.0 15.0 15.0 15.0 15.0 15.0 15.0 15.0 15.0 15.0 15.0 15.0 15.0 15.0 15.0 15.0 15.0 15.0
15.0 15.0 15.0 15.0 15.0 15.0 15.0 15.0 13.7 0.3 0.7 15.0 15.0 15.0 15.0 8.6 15.0 11.1 15.0 13.6 10.0 0.4 7.8 0.0 6.6 4.3 15.0 15.0 15.0 15.0 15.0 15.0 15.0 15.0 15.0 15.0 15.0 15.0 15.0 15.0 15.0 15.0 15.0 15.0 15.0
15.0 15.0 15.0 15.0 15.0 15.0 15.0 15.0 0.7 0.4 15.0 15.0 8.1 15.0 15.0 15.0 15.0 15.0 11.9 0.0 0.9 0.1 0.1 6.8 0.2 7.6 13.8 6.3 15.0 15.0 15.0 14.0 12.7 12.9 5.3 15.0 15.0 15.0 15.0 15.0 15.0 15.0 15.0 15.0 15.0
15.0 15.0 15.0 15.0 15.0 15.0 15.0 2.2 0.9 15.0 15.0 15.0 15.0 15.0 15.0 13.2 5.1 2.7 0.0 0.1 0.0 0.0 0.0 1.5 1.0 11.4 11.6 0.1 11.5 15.0 15.0 8.4 0.4 0.3 13.9 15.0 12.8 15.0 15.0 15.0 15.0 15.0 15.0 15.0 15.0
15.0 15.0 15.0 15.0 15.0 14.3 6.0 2.8 15.0 15.0 15.0 2.9 15.0 15.0 15.0 14.9 2.4 7.0 0.1 0.1 0.1 0.0 0.0 0.0 0.0 12.4 14.9 15.0 7.3 13.0 14.5 15.0 15.0 15.0 14.1 15.0 15.0 15.0 15.0 15.0 15.0 15.0 15.0 15.0 15.0
15.0 15.0 15.0 6.9 9.5 10.3 1.6 15.0 15.0 15.0 15.0 14.6 2.1 15.0 15.0 14.0 3.5 11.7 14.3 1.5 0.5 0.0 0.0 0.0 1.8 15.0 15.0 8.0 3.8 4.6 5.9 0.3 13.7 0.1 0.5 15.0 15.0 15.0 15.0 15.0 15.0 15.0 15.0 15.0 15.0
15.0 11.9 15.0 15.0 15.0 1.2 0.1 14.2 15.0 15.0 15.0 1.5 1.0 15.0 15.0 15.0 11.8 15.0 12.4 15.0 15.0 15.0 15.0 0.0 0.0 8.9 15.0 12.4 0.9 0.1 0.1 2.0 4.2 0.6 9.2 15.0 15.0 15.0 15.0 15.0 15.0 15.0 15.0 15.0 15.0
15.0 1.1 15.0 8.0 1.9 0.3 14.2 14.3 15.0 15.0 15.0 3.3 15.0 10.8 15.0 15.0 15.0 15.0 1.5 14.7 15.0 15.0 14.6 0.1 0.1 13.2 0.1 14.8 15.0 15.0 1.3 2.6 0.0 0.0 2.8 15.0 15.0 15.0 15.0 15.0 15.0 15.0 15.0 15.0 15.0
15.0 15.0 15.0 15.0 0.1 13.7 15.0 15.0 15.0 10.9 4.3 0.7 1.1 1.5 15.0 15.0 5.9 15.0 5.5 15.0 15.0 15.0 13.3 15.0 0.6 11.8 15.0 12.1 2.1 0.0 0.0 0.0 0.0 0.1 15.0 15.0 15.0 15.0 15.0 15.0 15.0 15.0 15.0 15.0 15.0
3.1 1.7 6.5 6.9 15.0 9.1 13.9 10.0 14.9 15.0 15.0 15.0 1.2 15.0 15.0 15.0 15.0 9.1 15.0 9.5 15.0 15.0 15.0 15.0 15.0 13.5 0.2 0.2 0.1 0.1 0.2 0.0 0.0 0.0 1.2 15.0 15.0 15.0 15.0 15.0 15.0 15.0 15.0 15.0 15.0
3.4 6.4 15.0 3.1 11.8 15.0 15.0 12.2 15.0 15.0 15.0 15.0 15.0 8.0 1.5 0.6 6.7 14.7 11.7 12.9 15.0 15.0 15.0 7.0 15.0 15.0 15.0 12.7 5.6 5.9 0.1 2.9 0.4 0.1 0.1 13.2 15.0 15.0 15.0 15.0 15.0 15.0 15.0 15.0 15.0
0.1 5.4 15.0 14.9 15.0 15.0 15.0 15.0 15.0 15.0 15.0 6.5 12.6 15.0 4.1 4.5 0.2 0.1 0.0 2.6 5.1 14.9 8.4 15.0 2.6 13.8 15.0 15.0 12.0 14.9 15.0 15.0 15.0 15.0 15.0 15.0 15.0 15.0 15.0 15.0 15.0 15.0 15.0 15.0 15.0
14.0 13.0 1.7 7.3 14.9 7.2 15.0 15.0 13.6 7.6 15.0 15.0 6.5 13.5 15.0 15.0 15.0 15.0 15.0 15.0 6.9 15.0 15.0 2.1 0.2 2.5 14.8 15.0 7.8 2.2 15.0 8.8 14.4 15.0 15.0 15.0 15.0 15.0 15.0 7.1 9.3 10.7 15.0 15.0 15.0